Groton, CT

8:31 AM EDT on October 24, 2017 (GMT -0400)
Groton-New London

Weather History for KGON - January, 2013

Change the Weather History Date:

Saturday, January 5, 2013

  Actual Average Record
Temperature  
Mean Temperature 34 °F -  
Max Temperature 43 °F 38 °F 58 °F (1993)
Min Temperature 24 °F 21 °F -3 °F (1981)
Degree Days  
Heating Degree Days 32    
Moisture  
Dew Point 22 °F    
Average Humidity 64    
Maximum Humidity 89    
Minimum Humidity 45    
Precipitation  
Precipitation 0.00 in - - ()
Sea Level Pressure  
Sea Level Pressure 30.14 in    
Wind  
Wind Speed 8 mph (WNW)    
Max Wind Speed 18 mph    
Max Gust Speed 28 mph    
Visibility 9 miles    
Events      
Averages and records for this station are not official NWS values.
T = Trace of Precipitation, MM = Missing Value Source: NWS Daily Summary

Daily Weather History Graph

Daily Weather History Graph

Search for Another Location

Airport or City:

Trip Planner

Search our weather history database for the weather conditions in past years. The results will help you decide how hot, cold, wet, or windy it might be!

Date:

Astronomy

Jan. 05, 2013 Rise Set
Actual Time 7:14 AM EST 4:33 PM EST
Civil Twilight 6:43 AM EST 5:04 PM EST
Nautical Twilight 6:08 AM EST 5:39 PM EST
Astronomical Twilight 5:35 AM EST 6:12 PM EST
Moon 12:15 AM EST (1/5) 11:23 AM EST (1/5)
Length of Visible Light 10h 21m
Length of Day
9h 19m
Last Quarter, 44% of the Moon is Illuminated
Jan 5
Last Quarter
Jan 11
New
Jan 18
First Quarter
Jan 26
Full
Feb 3
Last Quarter

Hourly Weather History & Observations

Time (EST) Temp. Windchill Dew Point Humidity Pressure Visibility Wind Dir Wind Speed Gust Speed Precip Events Conditions
12:56 AM 32.0 °F 24.8 °F 19.9 °F 61% 29.94 in 9.0 mi West 8.1 mph - N/A   Clear
1:56 AM 30.0 °F 24.1 °F 19.0 °F 64% 29.97 in 9.0 mi West 5.8 mph - N/A   Clear
2:56 AM 30.0 °F 23.2 °F 18.0 °F 61% 29.99 in 10.0 mi West 6.9 mph - N/A   Clear
3:56 AM 30.9 °F 22.8 °F 19.0 °F 61% 30.01 in 10.0 mi West 9.2 mph - N/A   Mostly Cloudy
4:56 AM 34.0 °F 26.0 °F 19.9 °F 56% 30.01 in 10.0 mi West 10.4 mph 18.4 mph N/A   Overcast
5:56 AM 34.0 °F 26.0 °F 21.9 °F 61% 30.05 in 10.0 mi West 10.4 mph 19.6 mph N/A   Mostly Cloudy
6:56 AM 35.6 °F 27.1 °F 23.0 °F 60% 30.08 in 10.0 mi West 12.7 mph 19.6 mph N/A   Overcast
7:56 AM 35.6 °F 28.0 °F 24.8 °F 65% 30.13 in 9.0 mi West 10.4 mph 19.6 mph N/A   Overcast
8:56 AM 36.0 °F 26.7 °F 23.0 °F 59% 30.17 in 9.0 mi West 15.0 mph - N/A   Overcast
9:56 AM 37.9 °F 30.9 °F 23.0 °F 55% 30.19 in 9.0 mi West 10.4 mph - N/A   Scattered Clouds
10:56 AM 39.9 °F 34.5 °F 23.0 °F 51% 30.18 in 9.0 mi WNW 8.1 mph - N/A   Clear
11:56 AM 42.1 °F 33.6 °F 23.0 °F 47% 30.17 in 10.0 mi NW 18.4 mph 27.6 mph N/A   Clear
12:56 PM 42.1 °F 34.5 °F 23.0 °F 47% 30.17 in 10.0 mi NW 15.0 mph 25.3 mph N/A   Clear
1:56 PM 42.1 °F 35.7 °F 21.9 °F 45% 30.17 in 10.0 mi NNW 11.5 mph - N/A   Clear
2:56 PM 43.0 °F 38.2 °F 23.0 °F 45% 30.19 in 10.0 mi WNW 8.1 mph - N/A   Clear
3:56 PM 41.0 °F 35.8 °F 21.9 °F 47% 30.22 in 10.0 mi West 8.1 mph - N/A   Clear
5:56 PM 28.0 °F - 23.0 °F 81% 30.25 in 10.0 mi Calm Calm - N/A   Clear
6:56 PM 26.6 °F 22.6 °F 21.2 °F 80% 30.26 in 9.0 mi NNE 3.5 mph - N/A   Clear
7:56 PM 26.1 °F - 23.0 °F 88% 30.26 in 8.0 mi Calm Calm - N/A   Clear
8:56 PM 24.1 °F 19.7 °F 19.9 °F 84% 30.25 in 8.0 mi NE 3.5 mph - N/A   Clear
9:56 PM 24.1 °F 18.2 °F 21.0 °F 88% 30.25 in 7.0 mi NNE 4.6 mph - N/A   Clear
10:56 PM 24.1 °F - 19.9 °F 84% 30.23 in 7.0 mi Calm Calm - N/A   Clear
11:56 PM 27.0 °F 21.6 °F 24.1 °F 89% 30.19 in 7.0 mi NE 4.6 mph - N/A   Clear